Location: Moscow
(55.7500°N, 37.5830°E)
Time: 02:55:29
(UTC+03:00)

Tiros 1 despin weight - Visible Passes

Search period start: 30 November 2021 00:00
Search period end: 10 December 2021 00:00
Orbit: 593 x 641 km, 48.2° (Epoch: 29 November)

Date Brightness Start Highest point End Pass type
(mag) Time Alt. Az. Time Alt. Az. Time Alt. Az.
30 Nov ? 17:26:45 10° WSW 17:30:37 31° S 17:34:31 10° ESE visible
30 Nov ? 19:07:47 10° WSW 19:11:25 25° SSW 19:11:54 25° S visible
01 Dec ? 17:42:39 10° WSW 17:46:32 31° S 17:50:25 10° ESE visible
01 Dec ? 19:24:01 10° WSW 19:27:14 20° SSW 19:27:30 20° SSW visible
02 Dec ? 17:58:39 10° WSW 18:02:24 28° SSW 18:06:07 10° SE visible
02 Dec ? 19:40:34 10° WSW 19:42:59 14° SSW 19:43:10 14° SSW visible
03 Dec ? 18:14:46 10° WSW 18:18:15 23° SSW 18:21:45 10° SSE visible
04 Dec ? 16:49:32 10° WSW 16:53:23 30° S 16:57:14 10° SE visible
04 Dec ? 18:31:05 10° WSW 18:34:02 18° SSW 18:37:00 10° SSE visible
05 Dec ? 17:05:35 10° WSW 17:09:16 26° SSW 17:12:56 10° SE visible
05 Dec ? 18:47:57 10° WSW 18:49:45 12° SW 18:51:32 10° S visible
06 Dec ? 17:21:46 10° WSW 17:25:05 21° SSW 17:28:23 10° SSE visible
07 Dec ? 17:38:14 10° WSW 17:40:50 15° SSW 17:43:26 10° S visible
08 Dec ? 17:55:59 10° SW 17:56:30 10° SW 17:57:00 10° SSW visible
